Погода в Мазари-Шарифе

Афганистан     36°43′03″N   67°06′53″E
темп.,
°C
ветер,
м/с
пор.,
м/с
влажн.,
%
обл.,
%
осадки,
мм/ч
давл.,
гПа
погр.,
м
16 мая, вс
вс1601:30+24зюз44150 0.0 100828
04:30+22зюз44160 0.0 100927
07:30+27з45150 0.0 1010386
10:30+31сз44130 0.0 10101323
13:30+33сз32100 0.0 10082634
16:30+34зсз33100 0.0 10072849
19:30+28з44140 0.0 100835
22:30+26юз33150 0.0 100913
17 мая, пн
пн1701:30+24зюз23175 0.0 100912
04:30+23зюз44215 0.0 100920
07:30+28з44160 0.0 1011317
10:30+32зсз43120 0.0 10101253
13:30+34с11115 0.0 10082731
16:30+35с12112 0.0 10063272
19:30+29зсз44140 0.0 100727
22:30+26юз33140 0.0 100820
18 мая, вт
вт1801:30+26зюз331594 0.0 100718
04:30+24зюз44140 0.0 100733
07:30+29з45115 0.0 1009369
10:30+33зсз5485 0.0 10081484
13:30+35сз3270 0.0 10063035
16:30+35зсз4380 0.0 10053218
19:30+29зсз34110 0.0 100618
22:30+26ююз33120 0.0 100612
19 мая, ср
ср1901:30+25зюз33120 0.0 100512
04:30+24юз33150 0.0 100512
07:30+30зюз23140 0.0 1007254
10:30+34зсз2380 0.0 10061637
13:30+36зсз3460 0.0 10043732
16:30+36зсз65533 0.0 10042564
19:30+28з227100 0.0 100411
22:30+27зюз33681 0.0 100514
20 мая, чт
чт2001:30+26зюз44789 0.0 100521
04:30+25юз55899 0.0 100643
07:30+30юз57874 0.0 1007458
10:30+34з871095 0.0 10073229
13:30+34з8810100 0.0 10072943
16:30+35зсз47816 0.0 10054444
19:30+29з45117 0.0 100639
22:30+27юз5815100 0.0 100697